Home > Weather > Mariehamn > Past weeks

Flag for Åland Islands Past Weather in Mariehamn, Åland Islands — Yesterday and Last 2 Weeks

Now
64 °F

Passing clouds.


Feels Like: 64 °F
Forecast: 64 / 69 °F
Wind: 5 mph from West

Location: Mariehamn / Aland Island

Current Time: Jul 27, 2016 at 9:00:36 AM

Latest Report: Jul 27, 2016 at 8:20 AM


Visibility: N/A

Pressure: 29.98 "Hg

Humidity: 83%

Dew Point: 59 °F

Location of MariehamnLocation

Past Weather in Mariehamn — Graph

°F

Mariehamn Temperature Yesterday

Maximum temperature yesterday: 73 °F (at 3:50 PM)
Minimum temperature yesterday: 64 °F (at 1:50 AM)
Average temperature yesterday: 68 °F

High & Low Weather Summary for the Past Weeks

 TemperatureHumidityPressure
High75 °F (Jul 21, 2:20 PM)100% (Jul 15, 6:20 AM)30.15 "Hg (Jul 15, 6:20 AM)
Low43 °F (Jul 20, 2:50 AM)29% (Jul 20, 2:50 PM)29.47 "Hg (Jul 12, 7:20 AM)
Average64 °F80%29.92 "Hg
* Reported Jul 12 7:20 AM — Jul 27 7:50 AM, Mariehamn, Weather by CustomWeather, © 2016

Note: Actual official high and low records may vary slightly from our data, if they occured in-between our weather recording intervals... More about our weather records

Advertising

Mariehamn Weather History for the Previous 24 Hours

Scroll right to see more
 ConditionsComfort  
Time TempWeatherWind HumidityBarometerVisibility
7:50 AM
Wed, Jul 27
64 °FPassing clouds.7 mph83%29.98 "HgN/A
7:20 AM63 °FPassing clouds.5 mph83%29.98 "HgN/A
6:50 AM63 °FSunny.6 mph83%29.98 "Hg10 mi
6:20 AM61 °FSunny.3 mph88%29.98 "Hg10 mi
5:50 AM59 °FClear.2 mph94%29.98 "Hg10 mi
5:20 AM61 °FClear.3 mph88%29.98 "Hg10 mi
4:50 AM63 °FClear.3 mph83%29.98 "Hg10 mi
4:20 AM63 °FPassing clouds.5 mph88%29.98 "HgN/A
3:50 AM64 °FClear.3 mph83%29.95 "Hg10 mi
3:20 AM64 °FPassing clouds.5 mph88%29.95 "HgN/A
2:50 AM64 °FPassing clouds.3 mph94%29.95 "HgN/A
2:20 AM64 °FPartly cloudy.3 mph94%29.95 "HgN/A
1:50 AM64 °FPassing clouds.1 mph94%29.95 "Hg4 mi
1:20 AM64 °FPassing clouds.2 mph94%29.95 "HgN/A
12:50 AM64 °FPassing clouds.3 mph100%29.95 "HgN/A
12:20 AM64 °FPassing clouds.3 mph94%29.95 "HgN/A
11:50 PM
Tue, Jul 26
66 °FPassing clouds.3 mph94%29.95 "HgN/A
11:20 PM66 °FSunny.1 mph94%29.95 "Hg10 mi
10:50 PM66 °FLight rain. Overcast.3 mph94%29.95 "HgN/A
10:20 PM66 °FRain. Partly sunny.5 mph88%29.95 "HgN/A
9:50 PM68 °FSunny.5 mph83%29.92 "Hg10 mi
9:20 PM68 °FSunny.5 mph88%29.92 "Hg10 mi
8:50 PM68 °FScattered clouds.8 mph94%29.92 "HgN/A
8:20 PM68 °FPartly sunny.9 mph94%29.92 "HgN/A
7:50 PM70 °FLow clouds.10 mph88%29.92 "HgN/A
7:20 PM70 °FPartly sunny.12 mph88%29.95 "HgN/A
6:50 PM70 °FPartly sunny.12 mph83%29.95 "HgN/A
6:20 PM72 °FPassing clouds.14 mph73%29.95 "HgN/A
5:50 PM72 °FPassing clouds.13 mph78%29.95 "HgN/A
5:20 PM72 °FPassing clouds.13 mph73%29.95 "HgN/A
4:50 PM73 °FPassing clouds.12 mph74%29.95 "HgN/A
4:20 PM72 °FSunny.10 mph78%29.95 "Hg10 mi
3:50 PM73 °FPassing clouds.10 mph78%29.95 "HgN/A
3:20 PM72 °FPassing clouds.10 mph78%29.98 "HgN/A
2:50 PM72 °FPassing clouds.10 mph78%29.98 "HgN/A
2:20 PM72 °FPassing clouds.10 mph78%29.98 "HgN/A
1:50 PM72 °FScattered clouds.12 mph78%29.98 "HgN/A
1:20 PM72 °FPassing clouds.10 mph78%29.98 "HgN/A
12:50 PM72 °FPassing clouds.12 mph78%29.98 "HgN/A
12:20 PM72 °FScattered clouds.12 mph78%30.01 "HgN/A
11:50 AM70 °FScattered clouds.12 mph83%30.01 "HgN/A
10:50 AM70 °FPartly sunny.7 mph83%30.01 "HgN/A
10:20 AM68 °FPartly sunny.9 mph88%30.01 "HgN/A
9:50 AM68 °FLow clouds.7 mph88%30.01 "HgN/A
9:20 AM66 °FLow clouds.6 mph94%30.01 "HgN/A
Weather by CustomWeather, © 2016

See weather overviewHow to use our weather pages